map of FOR home
Great Circle Mapper logo
FOR - Airport
Location
City:  Fortaleza, Ceará, Brazil
Name:Pinto Martins International Airport
ICAO / IATA:SBFZ / FOR

Details
Type:Airport (Aerodrome, Airfield)
Use:Public/Civil, Military, International (customs port of entry)
Latitude:3°46'35"S (-3.776282)
Longitude:38°31'57"W (-38.532555)
Datum:WGS 1984
Elevation:82 ft (25 m)
Variation:21.3°W (WMM2010 magnetic declination)
Runways:1
Longest:8350 × 148 ft (2545 × 45 m), paved

Time
Time Zone:UTC-3
Local Time:

Weather
METAR:SBFZ 221000Z 17010KT 9999 FEW020 25/20 Q1012

Related Locations
Nearby:
Farthest:DJJ: 11989 mi / 19294 km
Djayapura (Jayapura) [Sentani], ID

Find:

   beyond  
but within

Other Information
Maps:
NOTAMs:
Links:
Sources:

  
flag of Brazil
flag of Ceará
flag of Fortaleza
  

Sectional Chart

Flight Planning
at skyvector.com

Satellite Image

Google Maps Satellite View

 

Copyright © 2004-2014 Karl L. Swartz. All rights reserved.
The Great Circle Mapper name and logo are trademarks of the Great Circle Mapper.
All other trademarks mentioned herein belong to their respective owners.
Please see credits for attibutions and further copyright information.

  Follow gcmap on Facebook Follow gcmap on Twitter

hCard Microformat

Geo Microformat